[[{"header":{"parameterUnit":"m.s-1","parameterCategory":1,"la1":30.2991,"la2":30.254,"lo1":-89.0895,"lo2":-89.0444,"dy":0.0017,"dx":0.0017,"nx":28,"ny":28,"refTime":"2024-06-14T21:00:00:Z","depth":0,"parameterNumber":2,"parameterNumberName":"U-component_of_WINDS"},"data":[0,0,0,0,0,0,0,0,0,0,0,0,0,0,0,0,0,0,0,0,0,0,0,0,0,0,0,0,0,0,0,0,0,0,0,0,0,0,0,0,0,0,0,0,0,0,0,0,0,0,0,0,0,0,0,0,0,0,0.3076,0.3076,0,0.3071,0.3071,0.3071,0.3055,0.3054,0.3054,0.3054,0.3048,0.3048,0.3048,0,0,0,0,0,0,0,0,0,0,0,0,0,0.3071,0.3071,0.3076,0.3076,0.3076,0.3071,0.3071,0.3071,0.3055,0.3054,0.3054,0.3054,0.3048,0.3048,0.3048,0,0,0,0,0,0,0,0,0,0,0,0,0,0.3071,0.3072,0.3076,0.3067,0.3067,0.3071,0.3071,0.3071,0.3055,0.3054,0.3054,0.3053,0.3048,0.3048,0.3048,0.3061,0,0,0.3049,0.3049,0,0,0,0,0,0,0,0,0.3071,0.3071,0.3069,0.3068,0.3067,0.3063,0.3067,0.3067,0.3055,0.3059,0.3054,0.3053,0.3053,0.3053,0.3053,0.306,0.306,0.3049,0.3049,0.305,0.305,0,0,0,0,0,0,0,0.3071,0.3071,0.3074,0.3069,0.3068,0.3064,0.3063,0.3067,0.3059,0.3059,0.3058,0.3057,0.3053,0.3053,0.3053,0.306,0.3049,0.305,0.305,0.305,0.3076,0.3077,0,0,0,0,0,0,0.3072,0.3071,0.3074,0.3074,0.3068,0.3064,0.3063,0.3065,0.3059,0.3058,0.3058,0.3057,0.3053,0.3053,0.3053,0.3066,0.305,0.305,0.305,0.3076,0.3076,0.3077,0,0,0,0,0,0,0.3072,0.3072,0.3074,0.3072,0.3072,0.3065,0.3067,0.3065,0.3065,0.3059,0.3057,0.306,0.3053,0.3053,0.3059,0.3066,0.305,0.305,0.3075,0.3076,0.3076,0.3094,0,0,0,0,0,0,0.3072,0.3073,0.3077,0.3072,0.3072,0.3081,0.3067,0.3065,0.3066,0.3064,0.306,0.3059,0.3052,0.3058,0.3059,0.3066,0.305,0.3074,0.3075,0.3076,0.3092,0.3095,0.3097,0,0,0,0,0,0.3072,0.3083,0.3078,0.3078,0.3078,0.3081,0.3081,0.3074,0.3067,0.3071,0.3067,0.3059,0.3065,0.3059,0.306,0.3067,0.3074,0.3075,0.3076,0.3091,0.3094,0.3097,0,0,0,0,0,0,0.3089,0.3082,0.3076,0.3086,0.3084,0.3079,0.3084,0.3077,0.3078,0.3076,0.3067,0.3066,0.3073,0.3071,0.3064,0.3078,0.3068,0.3069,0.3079,0.3082,0.3085,0.3085,0.3051,0,0,0,0,0,0.3094,0.3097,0.309,0.3099,0.3099,0.3092,0.3093,0.3087,0.3085,0.3084,0.308,0.3078,0.308,0.3081,0.3082,0.3092,0.309,0.3097,0.3099,0.3101,0.3103,0.3107,0.311,0.3081,0.3081,0.3081,0,0,0.3104,0.31,0.3103,0.3103,0.3101,0.3104,0.3091,0.3095,0.3097,0.3085,0.309,0.3087,0.3084,0.3092,0.3096,0.309,0.311,0.3103,0.3105,0.3105,0.3109,0.3111,0.3114,0.3082,0.3081,0.3081,0,0,0.3124,0.3122,0.3128,0.3127,0.3124,0.3119,0.312,0.3116,0.3113,0.3118,0.3109,0.3111,0.3114,0.3112,0.3111,0.313,0.3122,0.313,0.3143,0.3147,0.3149,0.3151,0.3157,0.316,0.3132,0.3132,0.3132,0,0.3136,0.3141,0.3133,0.3137,0.3137,0.3126,0.3132,0.3131,0.3129,0.3129,0.3123,0.3126,0.3123,0.313,0.3135,0.3135,0.3136,0.3131,0.315,0.3152,0.3153,0.3159,0.3161,0.3133,0.3133,0.3133,0.3132,0,0.3157,0.316,0.3166,0.3164,0.3164,0.317,0.3162,0.3164,0.3158,0.3153,0.3158,0.3155,0.3154,0.3156,0.315,0.3162,0.3159,0.3151,0.3141,0.3157,0.3162,0.3164,0.3134,0.3134,0.3133,0.3133,0,0,0.3188,0.318,0.3183,0.3181,0.3177,0.3179,0.3184,0.3183,0.3185,0.3183,0.3187,0.3189,0.3182,0.3182,0.3176,0.3179,0.3193,0.3172,0.3171,0.3175,0.3205,0.321,0.3213,0.3188,0.3189,0.3189,0.3205,0,0.3206,0.3214,0.3206,0.3216,0.3218,0.3207,0.3211,0.3208,0.3204,0.3205,0.3201,0.3202,0.3193,0.3193,0.3196,0.3191,0.3199,0.319,0.3191,0.3191,0.3192,0.3216,0.3222,0.3237,0.3207,0.3208,0.3208,0,0.3229,0.3228,0.3238,0.3232,0.3233,0.3237,0.3235,0.3237,0.3234,0.323,0.3229,0.3222,0.3225,0.3215,0.322,0.3214,0.3214,0.3211,0.3212,0.3211,0.32,0.3216,0.3242,0.3244,0.3211,0.3211,0.3211,0,0.325,0.3251,0.3257,0.3256,0.325,0.3253,0.325,0.3246,0.3246,0.3245,0.3245,0.3244,0.3244,0.3243,0.3235,0.3229,0.3241,0.323,0.3238,0.3238,0.3241,0.324,0.3267,0.3241,0.3241,0.3241,0.3241,0,0.3271,0.3277,0.3266,0.327,0.3276,0.3267,0.3273,0.3269,0.3266,0.3268,0.3258,0.3261,0.3251,0.3251,0.3246,0.325,0.325,0.3247,0.3245,0.3247,0.3248,0.3247,0.3246,0.3242,0.3242,0.3241,0.3241,0,0.3295,0.3288,0.3294,0.3287,0.3286,0.329,0.3285,0.3287,0.3282,0.3285,0.3285,0.3277,0.3278,0.327,0.3269,0.3265,0.3272,0.3268,0.3273,0.3272,0.3279,0.3278,0.3306,0.3308,0.3282,0.3282,0.3282,0,0.3309,0.3314,0.3307,0.3308,0.3306,0.3308,0.3307,0.3299,0.3299,0.3295,0.3298,0.3298,0.3297,0.3298,0.3292,0.3291,0.3287,0.3297,0.3287,0.3289,0.3287,0.3286,0.3286,0.3299,0.3299,0.3299,0.33,0,0.3335,0.3331,0.3331,0.333,0.333,0.3329,0.3327,0.3328,0.3318,0.3319,0.3319,0.3319,0.3317,0.3317,0.3315,0.3312,0.3304,0.3303,0.3304,0.3307,0.3309,0.3307,0.3278,0.3302,0.3302,0.3302,0.3302,0.3302,0.3354,0.3357,0.3353,0.3353,0.3351,0.3349,0.3351,0.3346,0.3346,0.3344,0.3339,0.334,0.3336,0.3332,0.333,0.333,0.3325,0.3328,0.3328,0.3329,0.333,0.3309,0.333,0.333,0.333,0.333,0.3329,0,0.3378,0.3375,0.3375,0.3373,0.3373,0.3366,0.3363,0.3363,0.3364,0.3361,0.3361,0.3361,0.336,0.3354,0.3352,0.3354,0.335,0.3354,0.3353,0.3352,0.3335,0.3333,0.3356,0.3356,0.3356,0.3356,0.3356,0.3356,0.3391,0.3395,0.3391,0.3394,0.339,0.3391,0.339,0.3388,0.3386,0.3386,0.3386,0.3381,0.3377,0.3375,0.3374,0.3372,0.3371,0.3376,0.3373,0.3356,0.3354,0.3351,0.335,0.3376,0.3376,0.339,0.3391,0.3391]},{"header":{"parameterUnit":"m.s-1","parameterCategory":1,"la1":30.2991,"la2":30.254,"lo1":-89.0895,"lo2":-89.0444,"dy":0.0017,"dx":0.0017,"nx":28,"ny":28,"refTime":"2024-06-14T21:00:00:Z","depth":0,"parameterNumber":3,"parameterNumberName":"V-component_of_WINDS"},"data":[0,0,0,0,0,0,0,0,0,0,0,0,0,0,0,0,0,0,0,0,0,0,0,0,0,0,0,0,0,0,0,0,0,0,0,0,0,0,0,0,0,0,0,0,0,0,0,0,0,0,0,0,0,0,0,0,0,0,-0.9731,-0.973,0,-0.9703,-0.9702,-0.9702,-0.9679,-0.9679,-0.9679,-0.9679,-0.965,-0.9649,-0.9648,0,0,0,0,0,0,0,0,0,0,0,0,0,-0.9764,-0.9764,-0.9731,-0.973,-0.973,-0.9703,-0.9702,-0.9702,-0.9679,-0.9679,-0.9679,-0.9679,-0.965,-0.9649,-0.9648,0,0,0,0,0,0,0,0,0,0,0,0,0,-0.9744,-0.9764,-0.9731,-0.9715,-0.9714,-0.9703,-0.9702,-0.9702,-0.968,-0.9679,-0.9679,-0.9679,-0.965,-0.9649,-0.9648,-0.965,0,0,-0.9646,-0.9645,0,0,0,0,0,0,0,0,-0.9745,-0.9743,-0.9718,-0.9716,-0.9715,-0.9694,-0.9703,-0.9684,-0.968,-0.9693,-0.9679,-0.9678,-0.9665,-0.9663,-0.9658,-0.9648,-0.9647,-0.9646,-0.9645,-0.9645,-0.9645,0,0,0,0,0,0,0,-0.9747,-0.9744,-0.9719,-0.9718,-0.9716,-0.971,-0.9707,-0.97,-0.9681,-0.9691,-0.969,-0.9687,-0.9664,-0.9659,-0.9657,-0.9647,-0.9646,-0.9645,-0.9644,-0.9644,-0.9637,-0.9638,0,0,0,0,0,0,-0.9751,-0.9745,-0.972,-0.9719,-0.973,-0.971,-0.9706,-0.9701,-0.9681,-0.9677,-0.9687,-0.9686,-0.9661,-0.9658,-0.9656,-0.9656,-0.9645,-0.9644,-0.9643,-0.9637,-0.9637,-0.9638,0,0,0,0,0,0,-0.9752,-0.9749,-0.9721,-0.9732,-0.9728,-0.9709,-0.9704,-0.9701,-0.9696,-0.9678,-0.9674,-0.9686,-0.966,-0.9657,-0.9652,-0.9655,-0.9644,-0.9643,-0.9637,-0.9637,-0.9637,-0.9657,0,0,0,0,0,0,-0.9753,-0.9749,-0.975,-0.9732,-0.9727,-0.9718,-0.9704,-0.97,-0.9695,-0.9693,-0.9675,-0.9672,-0.966,-0.9653,-0.9651,-0.9654,-0.9642,-0.9636,-0.9637,-0.9637,-0.9656,-0.9659,-0.966,0,0,0,0,0,-0.9754,-0.9756,-0.975,-0.9747,-0.9727,-0.9718,-0.9715,-0.9701,-0.9695,-0.9695,-0.9683,-0.9673,-0.9655,-0.9653,-0.965,-0.9653,-0.9636,-0.9637,-0.9637,-0.9655,-0.9658,-0.966,0,0,0,0,0,0,-0.9774,-0.9753,-0.9746,-0.9743,-0.9732,-0.9714,-0.9714,-0.9704,-0.9695,-0.9694,-0.9676,-0.9673,-0.9669,-0.966,-0.9658,-0.9653,-0.9644,-0.9644,-0.9659,-0.9661,-0.9663,-0.9665,-0.9641,0,0,0,0,0,-0.9779,-0.9773,-0.9755,-0.9754,-0.9749,-0.9732,-0.9728,-0.9718,-0.9706,-0.9701,-0.9689,-0.9678,-0.967,-0.9665,-0.9657,-0.9655,-0.9651,-0.9656,-0.9658,-0.966,-0.966,-0.9658,-0.966,-0.964,-0.964,-0.964,0,0,-0.9787,-0.9775,-0.9772,-0.9757,-0.9748,-0.9742,-0.9729,-0.9723,-0.9719,-0.97,-0.9694,-0.9685,-0.9672,-0.9668,-0.9666,-0.9661,-0.9665,-0.9661,-0.9662,-0.9661,-0.9659,-0.9661,-0.9663,-0.9641,-0.964,-0.964,0,0,-0.98,-0.979,-0.9788,-0.9779,-0.9765,-0.9754,-0.9754,-0.9737,-0.9731,-0.9724,-0.9711,-0.9705,-0.9692,-0.9683,-0.9676,-0.9686,-0.9676,-0.9684,-0.9694,-0.9693,-0.9694,-0.9696,-0.9699,-0.9701,-0.9684,-0.9684,-0.9684,0,-0.9812,-0.9803,-0.9788,-0.9783,-0.9777,-0.9761,-0.9758,-0.975,-0.9735,-0.9731,-0.9725,-0.9709,-0.9698,-0.9692,-0.9695,-0.969,-0.9689,-0.9686,-0.9696,-0.9697,-0.9698,-0.9701,-0.9702,-0.9685,-0.9685,-0.9685,-0.9685,0,-0.9818,-0.9812,-0.9812,-0.9798,-0.9791,-0.9788,-0.9773,-0.9768,-0.9759,-0.9749,-0.9743,-0.973,-0.9719,-0.9717,-0.9707,-0.9709,-0.9707,-0.9699,-0.9689,-0.9701,-0.9703,-0.9704,-0.9687,-0.9687,-0.9686,-0.9686,0,0,-0.9842,-0.982,-0.982,-0.9813,-0.9797,-0.9792,-0.9788,-0.9778,-0.9774,-0.9764,-0.976,-0.9749,-0.9742,-0.9735,-0.9724,-0.9723,-0.9732,-0.9715,-0.9715,-0.9719,-0.9733,-0.9739,-0.974,-0.9725,-0.9725,-0.9725,-0.9734,0,-0.9852,-0.9844,-0.9831,-0.9827,-0.9821,-0.9805,-0.9802,-0.9792,-0.9782,-0.9776,-0.9765,-0.9758,-0.9749,-0.9744,-0.9742,-0.9731,-0.9734,-0.973,-0.9721,-0.9721,-0.9724,-0.9742,-0.9748,-0.9757,-0.9735,-0.9735,-0.9735,0,-0.9862,-0.9853,-0.9848,-0.9833,-0.983,-0.9827,-0.9816,-0.981,-0.9799,-0.9792,-0.9784,-0.9773,-0.9768,-0.976,-0.9752,-0.975,-0.9745,-0.9739,-0.9739,-0.9737,-0.9728,-0.974,-0.9759,-0.976,-0.9737,-0.9736,-0.9736,0,-0.988,-0.9866,-0.9862,-0.9857,-0.9839,-0.9837,-0.9829,-0.9817,-0.9812,-0.9802,-0.9799,-0.9789,-0.9783,-0.9776,-0.9763,-0.9758,-0.9757,-0.9747,-0.9751,-0.9751,-0.9751,-0.9751,-0.9769,-0.9748,-0.9748,-0.9748,-0.9748,0,-0.9892,-0.9889,-0.987,-0.9867,-0.9864,-0.9849,-0.9847,-0.9838,-0.9827,-0.9822,-0.9809,-0.9804,-0.9787,-0.9781,-0.977,-0.9766,-0.9763,-0.9758,-0.9755,-0.9759,-0.9759,-0.9755,-0.9754,-0.9749,-0.9749,-0.9749,-0.9749,0,-0.9911,-0.9898,-0.9892,-0.9875,-0.9871,-0.987,-0.9856,-0.9852,-0.9842,-0.9836,-0.9834,-0.9818,-0.981,-0.9796,-0.9784,-0.9777,-0.9775,-0.977,-0.9779,-0.9777,-0.9781,-0.9781,-0.9797,-0.9798,-0.9777,-0.9777,-0.9777,0,-0.9919,-0.9917,-0.9901,-0.9896,-0.9889,-0.9883,-0.9877,-0.9863,-0.9857,-0.9844,-0.9842,-0.9833,-0.9825,-0.9813,-0.9801,-0.9791,-0.9786,-0.9793,-0.9785,-0.9789,-0.9786,-0.9786,-0.9786,-0.9794,-0.9794,-0.9795,-0.9795,0,-0.9935,-0.9929,-0.9921,-0.9912,-0.9906,-0.9897,-0.9888,-0.9886,-0.9869,-0.9864,-0.9856,-0.9849,-0.9837,-0.9829,-0.9818,-0.981,-0.98,-0.9798,-0.9798,-0.9802,-0.9807,-0.9804,-0.9783,-0.9797,-0.9797,-0.9797,-0.9797,-0.9797,-0.9949,-0.9946,-0.9935,-0.9927,-0.9919,-0.9911,-0.9907,-0.9896,-0.9889,-0.9878,-0.987,-0.9863,-0.9851,-0.9835,-0.9828,-0.9822,-0.9817,-0.9817,-0.9817,-0.9818,-0.9819,-0.9808,-0.982,-0.982,-0.982,-0.9819,-0.9819,0,-0.9964,-0.9956,-0.9949,-0.9937,-0.9931,-0.9922,-0.9912,-0.9907,-0.9901,-0.9891,-0.9884,-0.9874,-0.9866,-0.9853,-0.9843,-0.9841,-0.9836,-0.9839,-0.9839,-0.9837,-0.9824,-0.9825,-0.9843,-0.9843,-0.9843,-0.9843,-0.9843,-0.9843,-0.9971,-0.9967,-0.9959,-0.995,-0.9942,-0.9935,-0.9929,-0.9922,-0.9914,-0.9904,-0.9897,-0.9889,-0.9878,-0.9867,-0.9859,-0.9856,-0.9853,-0.9857,-0.9852,-0.984,-0.9838,-0.9836,-0.9836,-0.9856,-0.9856,-0.9865,-0.9865,-0.9865]}]]